Regional Weather Roundup
Issued by NWS

Home | Current Version | Previous Version | Graphics & Text | Print | Product List | Glossary On
Versions: 1 2 3 4 5 6 7 8 9 10 11 12 13 14 15 16 17 18 19 20 21 22 23 24 25 26 27 28 29 30 31 32 33 34 35 36 37 38 39 40 41 42 43 44 45 46 47 48 49 50
000
ASUS43 KBIS 180310
RWRND

NORTH DAKOTA REGIONAL WEATHER ROUNDUP
NATIONAL WEATHER SERVICE BISMARCK ND
1000 PM CDT TUE OCT 17 2017

NOTE: "FAIR" INDICATES FEW OR NO CLOUDS BELOW 12,000 FEET WITH NO
SIGNIFICANT WEATHER AND/OR OBSTRUCTIONS TO VISIBILITY.


NDZ001>003-009>011-017-180400-
NORTHWEST NORTH DAKOTA

CITY           SKY/WX    TMP DP  RH WIND       PRES   REMARKS
WILLISTON      CLOUDY    62  26  25 S10       29.50F
MINOT          CLOUDY    67  26  21 S18G26    29.51F
MINOT AFB      CLOUDY    64  26  24 SW17      29.49F
$$

NDZ018>021-031>035-040>046-180400-
SOUTHWEST NORTH DAKOTA

CITY           SKY/WX    TMP DP  RH WIND       PRES   REMARKS
BISMARCK       CLOUDY    64  25  22 S9        29.66F
DICKINSON      CLOUDY    62  24  23 SW18      29.64F
GARRISON         N/A     60  30  32 SW13      29.59F
HETTINGER ARPT CLOUDY    53  23  31 S3        29.73F
$$

NDZ004>008-012>016-024-026-027-054-180400-
NORTHEAST NORTH DAKOTA

CITY           SKY/WX    TMP DP  RH WIND       PRES   REMARKS
GRAND FORKS    CLEAR     57  39  51 S13       29.61F
GRND FRKS AFB  CLEAR     55  34  45 S7        29.60F
DEVILS LAKE    CLEAR     59  38  45 SW17      29.59F
$$

NDZ022-023-025-028>030-036>039-047>053-180400-
SOUTHEAST NORTH DAKOTA

CITY           SKY/WX    TMP DP  RH WIND       PRES   REMARKS
FARGO          CLEAR     62  42  47 S15G25    29.70F
JAMESTOWN      PTCLDY    54  35  48 S9        29.68F
$$





USA.gov is the U.S. government's official web portal to all federal, state and local government web resources and services.